Regional Weather Roundup
Issued by NWS Green Bay, WI

Home | Current Version | Previous Version | Text Only | Print | Product List | Glossary On
Versions: 1 2 3 4 5 6 7 8 9 10 11 12 13 14 15 16 17 18 19 20 21 22 23 24 25 26 27 28 29 30 31 32 33 34 35 36 37 38 39 40 41 42 43 44 45 46 47 48 49 50
000
ASUS43 KGRB 041900
RWRGRB

NORTH-CENTRAL AND NORTHEAST WISCONSIN REGIONAL WEATHER ROUNDUP
NATIONAL WEATHER SERVICE GREEN BAY WI
200 PM CDT SAT JUL 04 2015

WIZ005-009-010>012-018-019-042000-
NORTH CENTRAL WISCONSIN

CITY           SKY/WX    TMP DP  RH WIND       PRES   REMARKS
IRONWOOD       MOSUNNY   77  57  50 E7        29.94S
MANITOWISH WTR NOT AVBL
ARBOR VITAE    NOT AVBL
EAGLE RIVER    NOT AVBL
LAND O LAKES   NOT AVBL
RHINELANDER    MOSUNNY   80  51  36 VRB5      29.99S
PHILLIPS       NOT AVBL
ANTIGO         NOT AVBL
TOMAHAWK       NOT AVBL
MERRILL        NOT AVBL
$$

WIZ013-073-042000-
NORTHEAST WISCONSIN

CITY           SKY/WX    TMP DP  RH WIND       PRES   REMARKS
IRON MOUNTAIN  PTSUNNY   80  56  43 CALM      29.97S
MARINETTE      MOSUNNY   73  61  64 SE8       29.98S
$$

WIZ017-030-035>037-045-042000-
CENTRAL WISCONSIN

CITY           SKY/WX    TMP DP  RH WIND       PRES   REMARKS
MEDFORD        NOT AVBL
WAUSAU         SUNNY     81  56  42 VRB3      29.96S
MOSINEE        MOSUNNY   81  61  50 VRB5      29.99S
MARSHFIELD     MOSUNNY   80  60  50 SW3       29.97F HAZE
WISC RAPIDS    MOSUNNY   81  63  54 VRB5      29.98F
STEVENS POINT  NOT AVBL
WAUPACA        NOT AVBL
SHAWANO        NOT AVBL
CLINTONVILLE   NOT AVBL
$$

WIZ038-039-048-051-042000-
FOX VALLEY

CITY           SKY/WX    TMP DP  RH WIND       PRES   REMARKS
NWS GREEN BAY  MOSUNNY   80  64  58 N3        29.97F
APPLETON       PTSUNNY   79  61  53 SW7       29.98F
OSHKOSH        PTSUNNY   80  60  50 S6        29.97F
FOND DU LAC    MOSUNNY   80  62  54 S5        29.98S
$$

WIZ022-050-052-042000-
EAST CENTRAL WISCONSIN

CITY           SKY/WX    TMP DP  RH WIND       PRES   REMARKS
STURGEON BAY   SUNNY     72  61  68 E6        30.01S
MANITOWOC      NOT AVBL
SHEBOYGAN      PTSUNNY   80  60  50 CALM      29.98S
$$

LMZ563-521-522-541>543-042000-
LAKESHORE

STATION/POSITION TIME  TEMP    WIND        PRES    VSBY  WAVE
                       AIR SEA DIR/SP/G                  HT/PER
                 (UTC) (F)     (DEG/KT/KT) (MB)    (MI)  (FT/S)
SHEBOYGAN LKSHOR 1800   63      90/  6/  7 1015.6R
KEWAUNEE LKSHORE 1800   62      50/  6/  8 1015.1R
ALGOMA MARINA    1811           70/  5/  5   N/A
TWO RIVERS CG    1750   65                 1015.8   3 1/2  1
NORTHPORT PIER   1800   62     140/  6/  8 1015.6R
N MID LAKE BUOY  1750   57 45  180/  2/  2 1015.6R         1
S GREEN BAY BUOY 1830   69 70   30/ 10/ 12 1016.4F
STURGEON BAY CG  1755   63      70/  4     1015.8      6   1
CHAMBERS ISLAND  1800   68     360/  6/  7 1015.6R
MENOMINEE LKSHOR 1800   67      40/  5/  6 1016.1R
$$


USA.gov is the U.S. government's official web portal to all federal, state and local government web resources and services.